Hourly Data Report for October 02, 2015

All times are specified in Local Standard Time (LST). Add 1 hour to adjust for Daylight Saving Time where and when it is observed.

RANKIN INLET A
NUNAVUT

62°48'38.000" N
92°06'53.000" W
32.30 m
2303405
71083
YRT

Download Data

Hourly Data (October 2015)
Hourly Data Report for October 2, 2015
Temp Definition
°C
Dew Point Temp Definition
°C
Rel Hum Definition
%
Wind Dir Definition
10's deg

Wind Spd Definition
km/h
Visibility Definition
km
Stn Press Definition
kPa
Hmdx Definition


Wind Chill Definition


Weather Definition


TIME
00:00 Legend Double Dagger 3.9 1.3 83 4 22 24.1 102.26     Clear
01:00 Legend Double Dagger 4.0 -0.4 73 6 19 24.1 102.38     LegendNANA
02:00 Legend Double Dagger 3.6 -0.4 75 5 26 24.1 102.38     LegendNANA
03:00 Legend Double Dagger 3.6 -0.2 76 6 19 24.1 102.39     Clear
04:00 Legend Double Dagger 3.8 0.0 76 8 24 24.1 102.40     LegendNANA
05:00 Legend Double Dagger 3.8 0.0 76 8 27 24.1 102.43     LegendNANA
06:00 Legend Double Dagger 3.7 0.2 78 9 28 24.1 102.39     Cloudy
07:00 Legend Double Dagger 3.6 0.8 82 10 36 24.1 102.30     LegendNANA
08:00 Legend Double Dagger 3.4 1.8 89 9 31 4.8 102.30     Rain
09:00 Legend Double Dagger 3.8 2.2 89 10 30 16.1 102.24     Cloudy
10:00 Legend Double Dagger 4.1 2.1 87 9 34 12.9 102.14     LegendNANA
11:00 Legend Double Dagger 4.4 2.3 86 10 32 12.9 102.05     LegendNANA
12:00 Legend Double Dagger 4.4 2.6 88 9 31 12.9 101.96     Cloudy
13:00 Legend Double Dagger 4.2 3.2 93 10 25 4.8 101.91     Fog
14:00 Legend Double Dagger 4.3 3.7 96 11 34 0.0 101.81     Fog
15:00 Legend Double Dagger 4.5 4.1 97 11 30 0.0 101.72     Fog
16:00 Legend Double Dagger 4.6 4.3 98 11 32 0.2 101.60     Fog
17:00 Legend Double Dagger 4.6 4.3 98 11 28 0.0 101.59     Fog
18:00 Legend Double Dagger 4.7 4.4 98 11 22 0.4 101.59     Fog
19:00 Legend Double Dagger 4.9 4.6 98 11 17 1.6 101.56     Fog
20:00 Legend Double Dagger 4.6 4.3 98 11 19 1.6 101.50     Fog
21:00 Legend Double Dagger 4.4 4.1 98 11 18 1.6 101.48     Fog
22:00 Legend Double Dagger 4.8 4.5 98 11 23 1.6 101.43     Fog
23:00 Legend Double Dagger 5.2 4.9 98 11 17 1.6 101.37     Fog

Notes on Data Quality.

Legend

  • E = Estimated
  • M = Missing
  • NA = Not Available
  • ‡ = Partner data that is not subject to review by the National Climate Archives
Date modified: